map of ARH home
Great Circle Mapper logo
ARH - Airport
Location
City:  Arkhangelsk, Russian Federation (Russia)
Name:Talagi
ICAO / IATA:ULAA / ARH

Details
Type:Airport (Aerodrome, Airfield)
Use:Public/Civil
Latitude:6436'01"N (64.600281)
Longitude:4043'00"E (40.716667)
Datum:WGS 1984
Elevation:62 ft (19 m)
Runways:1
Longest:8202 × 144 ft (2500 × 44 m), paved

Time
Time Zone:UTC+3 (DST+4)

Weather
METAR:ULAA 230730Z 01004MPS 330V040 9999 SCT026 BKN/// M01/M04 Q1031 NOSIG RMK QFE771/1029 SC055
TAF:ULAA 230500Z 2306/2406 34004G09MPS 6000 SCT007CB BKN100 530001
TEMPO 2306/2309 0700 +SHSN BKN003 BKN007CB
TEMPO 2313/2324 VRB02MPS 1000 BR BKN003

Related Locations
Nearby:
Farthest:NZWD: 11008 mi / 17716 km
McMurdo Station [Williams Field], Ross Island, AQ

Find:

   beyond  
but within

Other Information
Maps:
NOTAMs:
Links:
Sources:

  
flag of Russian Federation (Russia)   

Sectional Chart

Flight Planning
at skyvector.com

Satellite Image

Google Maps Satellite View

 

Copyright © 2004-2014 Karl L. Swartz. All rights reserved.
The Great Circle Mapper name and logo are trademarks of the Great Circle Mapper.
All other trademarks mentioned herein belong to their respective owners.
Please see credits for attibutions and further copyright information.

  Follow gcmap on Facebook Follow gcmap on Twitter

hCard Microformat

Geo Microformat